Fort Wayne, IN

1:49 AM EST on January 24, 2018 (GMT -0500)
Fort Wayne International

Weather History for KFWA - April, 2014

Change the Weather History Date:

Thursday, April 3, 2014

  Actual Average Record
Temperature  
Mean Temperature 41 °F 45 °F  
Max Temperature 47 °F 56 °F 78 °F (1956)
Min Temperature 35 °F 35 °F 19 °F (1987)
Degree Days  
Heating Degree Days 24 20  
Month to date heating degree days 55 61  
Since 1 July heating degree days 6375 5485  
Cooling Degree Days 0 0  
Month to date cooling degree days 0 0  
Year to date cooling degree days 0 0  
Moisture  
Dew Point 35 °F    
Average Humidity 77    
Maximum Humidity 100    
Minimum Humidity 53    
Precipitation  
Precipitation 1.81 in 0.11 in 1.81 in (2014)
Month to date precipitation 1.87 0.35  
Year to date precipitation 9.85 7.36  
Snow  
Snow 0.00 in 0.10 in 3.00 in (1957)
Month to date snowfall 0.0 0.2  
Since 1 July snowfall 73.6 32.7  
Snow Depth 0.00 in    
Sea Level Pressure  
Sea Level Pressure 29.89 in    
Wind  
Wind Speed 18 mph (ENE)    
Max Wind Speed 33 mph    
Max Gust Speed 40 mph    
Visibility 4 miles    
Events Rain , Thunderstorm    
T = Trace of Precipitation, MM = Missing Value Source: NWS Daily Summary

Daily Weather History Graph

Daily Weather History Graph

Search for Another Location

Airport or City:

Trip Planner

Search our weather history database for the weather conditions in past years. The results will help you decide how hot, cold, wet, or windy it might be!

Date:

Astronomy

Apr. 03, 2014 Rise Set
Actual Time 7:20 AM EDT 8:07 PM EDT
Civil Twilight 6:53 AM EDT 8:35 PM EDT
Nautical Twilight 6:20 AM EDT 9:08 PM EDT
Astronomical Twilight 5:46 AM EDT 9:42 PM EDT
Moon 9:47 AM EDT (4/3) No Moon Set
Length of Visible Light 13h 42m
Length of Day
12h 47m
Waxing Crescent, 17% of the Moon is Illuminated
Apr 3
Waxing Crescent
Apr 7
First Quarter
Apr 15
Full
Apr 22
Last Quarter
Apr 29
New

Hourly Weather History & Observations

Time (EDT) Temp. Windchill Dew Point Humidity Pressure Visibility Wind Dir Wind Speed Gust Speed Precip Events Conditions
12:54 AM 46.9 °F - 30.9 °F 54% 30.06 in 10.0 mi ENE 18.4 mph - N/A   Overcast
1:54 AM 46.4 °F 40.1 °F 30.2 °F 53% 30.08 in 10.0 mi East 15.0 mph - N/A   Overcast
2:54 AM 43.0 °F 36.8 °F 34.0 °F 71% 30.07 in 6.0 mi East 11.5 mph - 0.01 in Rain Rain
3:54 AM 42.1 °F 34.2 °F 35.1 °F 76% 30.06 in 4.0 mi East 16.1 mph - 0.02 in Rain Rain
4:54 AM 41.0 °F 32.2 °F 35.1 °F 79% 30.04 in 6.0 mi ENE 18.4 mph - N/A Rain Light Rain
5:54 AM 39.0 °F 29.6 °F 35.1 °F 86% 30.03 in 5.0 mi ENE 18.4 mph 26.5 mph N/A Rain Light Rain
6:54 AM 37.9 °F 26.8 °F 34.0 °F 86% 30.00 in 7.0 mi East 24.2 mph 33.4 mph 0.00 in Rain Light Rain
7:54 AM 37.9 °F 26.3 °F 34.0 °F 86% 29.97 in 6.0 mi East 26.5 mph 34.5 mph 0.06 in Rain Light Rain
8:30 AM 37.0 °F 26.2 °F 35.1 °F 93% 29.95 in 2.0 mi East 21.9 mph 29.9 mph 0.09 in Rain Heavy Rain
8:54 AM 37.9 °F 27.3 °F 35.1 °F 89% 29.99 in 3.0 mi East 21.9 mph 32.2 mph 0.20 in Rain Rain
9:38 AM 37.9 °F 26.8 °F 36.0 °F 93% 29.95 in 2.5 mi East 24.2 mph 32.2 mph 0.26 in Rain Heavy Rain
9:54 AM 37.9 °F 26.3 °F 36.0 °F 93% 29.93 in 1.8 mi East 26.5 mph 33.4 mph N/A Rain Heavy Rain
10:11 AM 37.9 °F 27.6 °F 36.0 °F 93% 29.89 in 2.5 mi ENE 20.7 mph 38.0 mph N/A Rain Heavy Rain
10:19 AM 37.0 °F 26.4 °F 36.0 °F 96% 29.92 in 3.0 mi ENE 20.7 mph 32.2 mph N/A Rain Rain
10:42 AM 36.0 °F 24.4 °F 35.1 °F 97% 29.90 in 2.5 mi ENE 23.0 mph 29.9 mph 0.20 in Rain Heavy Rain
10:54 AM 36.0 °F 25.6 °F 34.0 °F 93% 29.94 in 2.5 mi ENE 18.4 mph 32.2 mph 0.25 in Rain Rain
11:14 AM 35.1 °F 24.1 °F 33.1 °F 92% 29.94 in 2.5 mi ENE 19.6 mph - 0.08 in Rain , Thunderstorm Thunderstorms and Rain
11:54 AM 35.1 °F 23.8 °F 33.1 °F 92% 29.93 in 1.5 mi ENE 20.7 mph - 0.33 in Rain Rain
12:47 PM 35.1 °F 23.8 °F 33.1 °F 92% 29.86 in 2.0 mi ENE 20.7 mph 28.8 mph 0.28 in Rain Rain
12:54 PM 35.1 °F 23.3 °F 33.1 °F 92% 29.86 in 2.5 mi ENE 23.0 mph 34.5 mph 0.31 in Rain Rain
1:54 PM 36.0 °F 24.2 °F 34.0 °F 93% 29.81 in 6.0 mi East 24.2 mph 33.4 mph 0.16 in Rain Light Rain
2:54 PM 36.0 °F 24.7 °F 34.0 °F 93% 29.81 in 5.0 mi East 21.9 mph 27.6 mph 0.00 in Rain Light Rain
3:45 PM 36.0 °F 24.2 °F 34.0 °F 93% 29.78 in 2.5 mi ENE 24.2 mph 29.9 mph 0.00 in Rain Light Rain
3:54 PM 36.0 °F 23.7 °F 34.0 °F 93% 29.78 in 2.5 mi ENE 26.5 mph 32.2 mph 0.00 in Rain Light Rain
4:13 PM 37.0 °F 27.0 °F 35.1 °F 93% 29.74 in 4.0 mi ENE 18.4 mph - 0.01 in Rain Light Rain
4:54 PM 37.0 °F 26.4 °F 35.1 °F 93% 29.76 in 3.0 mi ENE 20.7 mph 29.9 mph 0.01 in   Light Drizzle
5:08 PM 37.0 °F 25.1 °F 35.1 °F 93% 29.77 in 2.5 mi East 26.5 mph 29.9 mph 0.00 in Rain Light Rain
5:39 PM 37.0 °F 27.0 °F 35.1 °F 93% 29.77 in 3.0 mi ENE 18.4 mph 25.3 mph 0.01 in Rain Light Rain
5:54 PM 37.0 °F 26.2 °F 35.1 °F 93% 29.77 in 4.0 mi East 21.9 mph 26.5 mph 0.01 in Rain Light Rain
6:54 PM 37.0 °F 27.4 °F 35.1 °F 93% 29.80 in 3.0 mi East 17.3 mph - 0.00 in Rain Light Rain
7:54 PM 37.0 °F 29.3 °F 35.1 °F 93% 29.81 in 3.0 mi ENE 11.5 mph - 0.00 in   Light Drizzle
8:11 PM 37.0 °F 28.9 °F 36.0 °F 96% 29.79 in 3.0 mi ENE 12.7 mph - 0.00 in   Light Drizzle
8:54 PM 37.0 °F 28.9 °F 36.0 °F 96% 29.81 in 4.0 mi ENE 12.7 mph - 0.00 in   Light Drizzle
9:17 PM 37.0 °F 27.7 °F 36.0 °F 96% 29.80 in 2.5 mi ENE 16.1 mph - 0.00 in   Light Drizzle
9:54 PM 37.0 °F 28.9 °F 36.0 °F 96% 29.83 in 2.5 mi ENE 12.7 mph - 0.00 in   Light Drizzle
10:19 PM 37.9 °F 30.5 °F 37.0 °F 97% 29.80 in 1.8 mi ENE 11.5 mph - 0.00 in   Light Drizzle
11:54 PM 37.0 °F 29.3 °F 36.0 °F 96% 29.76 in 1.2 mi ENE 11.5 mph - 0.00 in   Overcast